This is the latest recevied weather packets stored in our database for station/object RUSSARO. If no packets are shown the sender has not sent any weather packets the latest 10 day(s).
| Time | Temp. | Humidity | Pressure | Rain* | Wind** | Luminosity | Snow |
|---|---|---|---|---|---|---|---|
| 1777862833 | 3.89° C | 84% | 1006.7 hPa | 0 mm | - | - | - |
| 1777861633 | 4.44° C | 82% | 1006.9 hPa | 0 mm | - | - | - |
| 1777860433 | 4.44° C | 83% | 1007 hPa | 0 mm | - | - | - |
| 1777859234 | 4.44° C | 82% | 1007.2 hPa | 0 mm | - | - | - |
| 1777858033 | 5° C | 82% | 1007.4 hPa | 0 mm | - | - | - |
| 1777856834 | 5° C | 82% | 1007.4 hPa | 0 mm | - | - | - |
| 1777855633 | 5° C | 83% | 1007.5 hPa | 0 mm | - | - | - |
| 1777854434 | 5° C | 83% | 1007.7 hPa | 0 mm | - | - | - |
| 1777853234 | 5.56° C | 82% | 1007.8 hPa | 0 mm | - | - | - |
| 1777852033 | 5.56° C | 81% | 1007.9 hPa | 0 mm | - | - | - |
| 1777850833 | 6.11° C | 81% | 1007.9 hPa | 0 mm | - | - | - |
| 1777849633 | 6.11° C | 81% | 1008 hPa | 0 mm | - | - | - |
| 1777848433 | 6.11° C | 79% | 1008 hPa | 0 mm | - | - | - |
| 1777847233 | 6.11° C | 80% | 1008.3 hPa | 0 mm | - | - | - |
| 1777846033 | 6.11° C | 80% | 1008.2 hPa | 0 mm | - | - | - |
| 1777844832 | 6.11° C | 80% | 1008.4 hPa | 0 mm | - | - | - |
| 1777843632 | 5.56° C | 84% | 1008.5 hPa | 0 mm | - | - | - |
| 1777842433 | 5.56° C | 86% | 1008.5 hPa | 0 mm | - | - | - |
| 1777841232 | 5.56° C | 86% | 1008.5 hPa | 0 mm | - | - | - |
| 1777840032 | 6.11° C | 84% | 1008.5 hPa | 0 mm | - | - | - |
| 1777838832 | 6.11° C | 82% | 1008.5 hPa | 0 mm | - | - | - |
| 1777837632 | 6.11° C | 84% | 1008.6 hPa | 0 mm | - | - | - |
| 1777836431 | 6.11° C | 82% | 1008.6 hPa | 0 mm | - | - | - |
| 1777835232 | 6.67° C | 81% | 1008.6 hPa | 0 mm | - | - | - |
| 1777834032 | 6.67° C | 83% | 1008.7 hPa | 0 mm | - | - | - |
* Rain latest hour (hover to see other rain measurements)
** Current wind speed in m/s (hover to see current wind gust speed)